www.pogodaiklimat.ru

Погода и климат >> Архив погоды >> Норвегия >> Гротли


ПОГОДА в Гротли

  • Прогноз погоды в Гротли
  • Монитор погоды в Гротли

АРХИВ ПОГОДЫ в Гротли

Время (UTC), дата Ветер
(напр.,м/с)
 
Видим.   Явления Облачность Т
(С)
Тd
(С)
f
(%)
Тe
(С)
Тes
(С)
Комфортность P
(гПа)
Po
(гПа)
Тmin
(С)
Tmax
(С)
R
(мм)
R24
(мм)
S
(см)
16 15.08 ЮЗ 4-7
{7}
н/о н/о +14.9 -2.9 29 +14 +14 1002.4 905.1
17 15.08 ЮВ 1-3
{6}
н/о н/о +12.7 +1.3 46 +13 +13 1002.9 904.9
18 15.08 Ю 2-3
{8}
н/о н/о +12.7 -0.8 39 +12 +12 1002.8 904.8 +5.3 +15.2 0.2
19 15.08 СВ 1-2
{6}
н/о н/о +8.9 +3.4 68 +9 +9 1003.9 904.6
20 15.08 В 2-4
{4}
н/о н/о +9.9 +2.6 60 +9 +9 1003.5 904.5
21 15.08 В 3-5
{6}
н/о н/о +11.0 +2.2 55 +9 +9 1002.9 904.3
22 15.08 В 4-7
{7}
н/о н/о +10.8 +2.6 57 +9 +9 1003.2 904.5
23 15.08 В 4-7
{8}
н/о н/о +10.8 +3.4 60 +9 +9 1003.1 904.4
00 16.08 ЮВ 2-4
{8}
н/о н/о +10.1 +4.7 69 +9 +9 1003.0 904.1
01 16.08 ЮВ 2-3
{6}
н/о н/о +9.8 +5.0 72 +8 +8 1003.4 904.4 0.1
02 16.08 В 3-4
{5}
н/о н/о +8.5 +7.3 92 +6 +6 1003.9 904.4 3
03 16.08 Ю 1-2
{6}
н/о н/о +8.2 +6.5 89 +7 +7 1004.2 904.6
04 16.08 С 1-2
{3}
н/о н/о +7.6 +6.2 91 +7 +7 1004.5 904.7 0.1
05 16.08 СЗ 1-1
{2}
н/о н/о +7.4 +6.3 93 +6 +6 1004.8 904.9
06 16.08 Ю 1-1
{6}
н/о н/о +9.2 +7.4 88 +9 +9 1004.3 905.0 +7.3 +13.3 3
07 16.08 ЮВ 2-3
{4}
н/о н/о +9.7 +7.2 84 +8 +8 1004.7 905.5
08 16.08 СВ 1-2
{3}
н/о н/о +11.7 +4.2 60 +12 +12 1004.2 905.7
09 16.08 СВ 1-3
{4}
н/о н/о +13.2 +2.9 50 +14 +14 1003.7 905.8
10 16.08 ЮЗ 3-6
{6}
н/о н/о +12.9 -0.1 41 +12 +12 1004.0 905.9
11 16.08 З 3-5
{5}
н/о н/о +13.5 +0.4 41 +13 +13 1003.8 906.0
12 16.08 З 2-4
{6}
н/о н/о +12.7 -0.1 41 +12 +12 1004.5 906.3
13 16.08 ЮЗ 1-2
{6}
н/о н/о +13.0 -0.6 39 +14 +14 1004.3 906.2
14 16.08 ЮЗ 3-5
{5}
н/о н/о +13.7 +1.0 42 +13 +13 1003.9 906.1
15 16.08 З 2-2
{7}
н/о н/о +13.3 +1.1 43 +13 +13 1003.7 905.8
16 16.08 З 1-2
{3}
н/о н/о +13.3 -1.5 36 +14 +14 1003.4 905.5
17 16.08 СЗ 1-2
{2}
н/о н/о +11.3 +6.7 73 +11 +11 1003.9 905.3
18 16.08 В 1-2
{7}
н/о н/о +10.6 +4.7 67 +10 +10 1004.0 905.2 +9.3 +14.0
19 16.08 С 1-2
{3}
н/о н/о +9.4 +4.3 70 +9 +9 1004.1 904.9
20 16.08 В 2-3
{3}
н/о н/о +8.7 +4.7 76 +7 +7 1004.3 904.8
21 16.08 С 1-2
{3}
н/о н/о +9.1 +4.6 73 +9 +9 1003.9 904.6
22 16.08 С 1-1
{3}
н/о н/о +8.3 +5.5 83 +8 +8 1003.7 904.2
23 16.08 ЮЗ 1-3
{3}
н/о н/о +8.7 +4.3 74 +8 +8 1003.3 903.9
00 17.08 В 2-3
{5}
н/о н/о +9.6 +4.1 69 +8 +8 1002.4 903.4
01 17.08 ЮВ 2-3
{4}
н/о н/о +8.5 +4.2 74 +7 +7 1002.1 902.8
02 17.08 ЮВ 2-4
{6}
н/о н/о +9.1 +3.6 68 +8 +8 1001.0 902.0
03 17.08 В 3-4
{6}
н/о н/о +10.1 +3.5 64 +8 +8 999.9 901.4
04 17.08 В 4-7
{7}
н/о н/о +10.0 +4.1 67 +8 +8 999.2 900.7
05 17.08 СВ 4-7
{9}
н/о н/о +10.1 +4.8 70 +8 +8 998.6 900.1
06 17.08 ЮВ 3-4
{9}
н/о н/о +10.0 +5.1 72 +8 +8 998.1 899.7 +8.0 +10.9
07 17.08 В 4-6
{7}
н/о н/о +11.2 +5.1 66 +9 +9 997.2 899.2
08 17.08 СВ 4-7
{8}
н/о н/о +12.7 +4.7 58 +11 +11 995.9 898.5
09 17.08 В 5-9
{10}
н/о н/о +11.9 +6.1 68 +10 +10 995.5 897.9 0.1
10 17.08 В 5-8
{11}
н/о н/о +10.5 +7.0 79 +8 +8 995.6 897.6 0.2
11 17.08 СВ 5-8
{8}
н/о н/о +10.5 +7.0 79 +8 +8 995.1 897.1 0.1
12 17.08 СВ 4-7
{11}
н/о н/о +11.7 +6.3 69 +10 +10 994.1 896.6
13 17.08 ЮВ 5-8
{9}
н/о н/о +14.3 +8.1 66 +13 +13 992.4 895.9 0.2
14 17.08 В 4-7
{8}
н/о н/о +12.5 +9.1 80 +11 +11 993.0 895.9 0.2
15 17.08 В 4-6
{7}
н/о н/о +12.5 +8.7 78 +11 +11 992.9 895.8
16 17.08 В 4-7
{8}
н/о н/о +11.5 +9.4 87 +9 +9 993.6 896.1 2
17 17.08 СВ 3-4
{6}
н/о н/о +11.9 +9.2 84 +10 +10 993.3 896.0 0.1
18 17.08 ЮЗ 4-8
{9}
н/о н/о +11.5 +6.0 69 +9 +9 994.3 896.7 +9.9 +14.5 3
19 17.08 С 1-2
{6}
н/о н/о +10.4 +6.6 77 +10 +10 994.7 896.8
20 17.08 ЮВ 2-3
{3}
н/о н/о +9.5 +7.0 84 +8 +8 994.8 896.6
21 17.08 С 1-2
{5}
н/о н/о +8.1 +6.2 88 +7 +7 995.7 896.9
22 17.08 СЗ 1-1
{2}
н/о н/о +8.0 +6.4 90 +7 +7 996.0 897.1
23 17.08 СВ 1-3
{3}
н/о н/о +9.2 +6.8 85 +9 +9 996.3 897.8 0.1
00 18.08 В 3-5
{6}
н/о н/о +9.6 +5.8 77 +7 +7 996.7 898.3
01 18.08 С 2-4
{5}
н/о н/о +9.1 +4.8 74 +8 +8 997.2 898.6
02 18.08 Ю 2-5
{7}
н/о н/о +5.9 +2.9 81 +4 +4 998.8 899.0
03 18.08 С 2-3
{3}
н/о н/о +5.6 +1.2 73 +3 +3 999.1 899.2
04 18.08 СЗ 1-2
{3}
н/о н/о +4.0 +2.1 87 +3 +3 1000.2 899.6
05 18.08 В 1-2
{3}
н/о н/о +6.5 +3.0 78 +6 +6 999.3 899.6
06 18.08 ЮЗ 1-2
{7}
н/о н/о +7.8 +3.4 74 +7 +7 999.3 900.0 +3.1 +12.2 0.1
07 18.08 ЮВ 2-3
{5}
н/о н/о +9.6 +3.4 65 +8 +8 998.3 899.7
08 18.08 ЮЗ 2-4
{4}
н/о н/о +10.9 +3.0 58 +10 +10 998.3 900.1
09 18.08 ЮЗ 2-6
{6}
н/о н/о +11.8 +1.4 49 +11 +11 998.0 900.2
10 18.08 ЮВ 4-6
{6}
н/о н/о +10.9 +2.1 55 +9 +9 998.4 900.2
11 18.08 Ю 4-9
{10}
н/о н/о +11.3 +1.5 51 +9 +9 998.7 900.7
12 18.08 ЮВ 3-7
{10}
н/о н/о +11.7 +0.5 46 +10 +10 998.1 900.2
13 18.08 ЮВ 4-9
{9}
н/о н/о +12.7 +1.4 46 +11 +11 997.6 900.1
14 18.08 Ю 5-8
{11}
н/о н/о +14.3 -0.2 37 +13 +13 996.8 899.9
15 18.08 Ю 3-6
{8}
н/о н/о +14.9 -0.7 34 +14 +14 996.2 899.5
16 18.08 Ю 3-6
{7}
н/о н/о +13.8 +0.6 40 +13 +13 996.3 899.3
17 18.08 Ю 3-6
{8}
н/о н/о +13.6 +1.8 45 +13 +13 996.2 899.1
18 18.08 Ю 2-4
{11}
н/о н/о +11.5 +3.2 57 +11 +11 996.8 899.0 +7.8 +15.3
19 18.08 Ю 1-3
{3}
н/о н/о +10.6 +3.9 63 +11 +11 997.5 899.3
20 18.08 В 2-4
{5}
н/о н/о +9.4 +4.4 71 +8 +8 998.0 899.4
21 18.08 В 5-7
{7}
н/о н/о +8.7 +4.2 73 +5 +5 998.1 899.2
22 18.08 В 3-4
{7}
н/о н/о +8.9 +3.7 70 +7 +7 998.0 899.2
23 18.08 ЮВ 1-2
{5}
н/о н/о +8.4 +4.6 77 +8 +8 997.9 899.0
00 19.08 В 3-4
{7}
н/о н/о +8.9 +4.7 75 +7 +7 997.4 898.7
01 19.08 В 3-4
{5}
н/о н/о +8.5 +5.2 80 +6 +6 997.4 898.6
02 19.08 В 3-4
{6}
н/о н/о +7.8 +5.3 84 +5 +5 997.4 898.3
03 19.08 В 3-6
{6}
н/о н/о +8.0 +4.9 81 +5 +5 997.2 898.2
04 19.08 В 4-6
{6}
н/о н/о +7.4 +4.8 84 +4 +4 997.2 898.0
05 19.08 В 4-6
{6}
н/о н/о +7.5 +4.7 82 +4 +4 997.3 898.1
06 19.08 В 5-7
{8}
н/о н/о +8.2 +4.6 78 +5 +5 996.9 898.0 +7.1 +11.5
07 19.08 В 4-6
{7}
н/о н/о +9.1 +4.9 75 +6 +6 996.2 897.7
08 19.08 В 4-6
{8}
н/о н/о +10.1 +4.3 67 +8 +8 996.1 897.9
09 19.08 В 4-7
{8}
н/о н/о +10.4 +4.1 65 +8 +8 996.2 898.1
10 19.08 ЮЗ 2-6
{7}
н/о н/о +10.5 +3.1 60 +9 +9 996.8 898.7
11 19.08 ЮЗ 3-6
{6}
н/о н/о +11.0 +3.2 59 +9 +9 997.1 899.1
12 19.08 ЮЗ 2-3
{8}
н/о н/о +11.3 +3.1 57 +10 +10 997.7 899.7
13 19.08 З 4-7
{9}
н/о н/о +11.4 +3.2 57 +9 +9 998.6 900.6
14 19.08 З 2-5
{6}
н/о н/о +12.6 +3.6 54 +12 +12 998.5 900.8 0.1
15 19.08 З 2-5
{7}
н/о н/о +12.1 +3.1 54 +11 +11 999.2 901.3
16 19.08 З 3-5
{5}
н/о н/о +11.4 +3.6 59 +10 +10 1000.1 901.9
17 19.08 З 2-4
{6}
н/о н/о +10.6 +3.8 63 +9 +9 1001.0 902.5
18 19.08 З 2-3
{9}
н/о н/о +10.1 +3.8 65 +9 +9 1001.3 902.6 +8.0 +13.4 0.1
19 19.08 З 1-2
{3}
н/о н/о +9.2 +3.4 67 +9 +9 1002.0 902.9
20 19.08 В 1-3
{3}
н/о н/о +8.8 +4.1 72 +8 +8 1002.5 903.3
21 19.08 С 1-1
{5}
н/о н/о +7.6 +4.4 80 +7 +7 1003.3 903.6
22 19.08 СЗ 1-3
{4}
н/о н/о +7.9 +3.9 76 +7 +7 1003.8 904.1
23 19.08 З 2-3
{3}
н/о н/о +8.3 +3.9 74 +7 +7 1003.9 904.3
00 20.08 С 1-2
{5}
н/о н/о +7.9 +4.8 81 +7 +7 1004.2 904.5
01 20.08 С 1-2
{3}
н/о н/о +8.1 +3.8 74 +7 +7 1004.4 904.7
02 20.08 штиль 0-1
{3}
н/о н/о +7.1 +3.8 80 +6 +6 1004.9 904.9
03 20.08 СЗ 1-2
{3}
н/о н/о +7.1 +3.7 79 +6 +6 1005.3 905.2
04 20.08 СВ 1-2
{3}
н/о н/о +6.2 +3.9 85 +5 +5 1006.0 905.6
05 20.08 СВ 1-1
{3}
н/о н/о +7.1 +4.9 86 +6 +6 1006.0 905.8
06 20.08 СВ 1-3
{3}
н/о н/о +8.5 +4.6 76 +8 +8 1005.8 906.1 +5.6 +10.0
07 20.08 СЗ 1-2
{3}
н/о н/о +9.7 +4.7 71 +9 +9 1005.8 906.5
08 20.08 З 2-4
{4}
н/о н/о +10.2 +4.2 66 +9 +9 1006.3 907.1
09 20.08 З 2-4
{5}
н/о н/о +10.8 +4.2 64 +10 +10 1006.5 907.5
10 20.08 З 3-6
{6}
н/о н/о +11.4 +4.2 61 +10 +10 1006.6 907.8
11 20.08 З 3-5
{7}
н/о н/о +11.5 +4.1 60 +10 +10 1007.1 908.3
12 20.08 З 4-7
{7}
н/о н/о +11.4 +4.5 63 +9 +9 1007.8 908.9
13 20.08 ЮЗ 4-6
{7}
н/о н/о +12.2 +4.2 58 +10 +10 1008.2 909.5
14 20.08 З 2-3
{8}
н/о н/о +12.0 +5.1 63 +11 +11 1008.6 909.8
15 20.08 З 5-8
{9}
н/о н/о +11.5 +5.4 66 +9 +9 1009.3 910.3
16 20.08 З 4-7
{8}
н/о н/о +10.0 +5.1 72 +7 +7 1010.9 911.2
17 20.08 З 3-5
{7}
н/о н/о +9.7 +3.8 67 +8 +8 1011.8 911.9
18 20.08 З 4
{9}
н/о н/о +9.1 +3.0 66 +6 +6 1012.4 912.2 +13.1
20 20.08 З 1-3
{4}
н/о н/о +7.3 +4.1 80 +6 +6 1014.3 913.4
21 20.08 З 3-7
{7}
н/о н/о +7.3 +3.8 78 +5 +5 1014.9 913.9
22 20.08 СЗ 4-6
{6}
н/о н/о +7.1 +3.0 75 +4 +4 1015.6 914.5
23 20.08 З 1-2
{7}
н/о н/о +6.3 +2.8 78 +5 +5 1016.5 915.0
00 21.08 СЗ 1 н/о н/о +5.4 +3.0 85 +4 +4 1017.0 915.2
01 21.08 З 3-5
{5}
н/о н/о +6.4 +3.4 81 +3 +3 1017.4 915.9
02 21.08 СЗ 2-3
{4}
н/о н/о +5.7 +3.5 86 +3 +3 1018.0 916.1 0.2
03 21.08 СЗ 2-4
{4}
н/о н/о +5.4 +3.1 85 +3 +3 1018.4 916.4 0.3
04 21.08 СЗ 3-4
{6}
н/о н/о +5.2 +2.6 83 +2 +2 1018.7 916.6 0.1
05 21.08 С 1-2
{4}
н/о н/о +4.3 +2.8 90 +3 +3 1019.6 917.1 0.2
06 21.08 СЗ 2-4
{6}
н/о н/о +6.3 +3.1 80 +4 +4 1019.4 917.6 +4.2 0.9
07 21.08 СЗ 2-4
{5}
н/о н/о +6.5 +3.3 80 +4 +4 1019.8 918.1
08 21.08 З 4-5
{6}
н/о н/о +8.2 +2.8 69 +5 +5 1019.7 918.6 0.1
09 21.08 З 4-7
{7}
н/о н/о +8.6 +2.2 64 +6 +6 1019.9 918.9
10 21.08 З 4-6
{6}
н/о н/о +8.4 +1.8 63 +6 +6 1020.4 919.2
11 21.08 З 4-7
{7}
н/о н/о +8.6 +1.9 63 +6 +6 1020.5 919.4
12 21.08 З 4-6
{7}
н/о н/о +9.2 +2.2 62 +7 +7 1020.4 919.5
13 21.08 СЗ 3-5
{6}
н/о н/о +9.3 +2.6 63 +7 +7 1020.5 919.6
14 21.08 З 3-5
{6}
н/о н/о +9.4 +2.6 62 +7 +7 1020.6 919.7
15 21.08 СЗ 4-6
{6}
н/о н/о +9.3 +2.4 62 +7 +7 1020.7 919.8
16 21.08 З 3-4
{5}
н/о н/о +9.4 +2.9 64 +7 +7 1020.7 919.8
17 21.08 З 2-4
{4}
н/о н/о +8.9 +3.4 68 +7 +7 1021.1 920.0
18 21.08 СЗ 2-2
{6}
н/о н/о +8.6 +2.6 66 +7 +7 1021.1 919.9 +6.3 +10.5 0.1
19 21.08 штиль 0-1
{3}
н/о н/о +7.1 +3.8 80 +6 +6 1021.5 919.8
20 21.08 С 1-1
{1}
н/о н/о +3.4 +1.7 89 +2 +2 1022.5 919.4
21 21.08 СЗ 1-1
{1}
н/о н/о +0.7 -0.2 94 -1 -1 1023.7 919.6
22 21.08 С 1-1
{1}
н/о н/о -0.5 -1.1 96 -3 -3 1023.9 919.3
23 21.08 СЗ 1-1
{2}
н/о н/о -1.0 -1.5 96 -3 -3 1023.9 919.1
00 22.08 СВ 1-1
{3}
н/о н/о -1.3 -1.8 96 -4 -4 1023.9 919.0
01 22.08 З 1-1
{2}
н/о н/о -1.6 -2.0 97 -4 -4 1023.8 918.8
02 22.08 СЗ 1-1
{2}
н/о н/о -1.0 -1.4 97 -3 -3 1023.1 918.3
03 22.08 Ю 1-3
{5}
н/о н/о +2.5 +1.6 94 +1 +1 1021.0 917.7
04 22.08 СВ 4-6
{6}
н/о н/о +5.3 +1.5 76 +1 +1 1019.2 917.1
05 22.08 В 4-6
{7}
н/о н/о +5.6 +1.7 76 +2 +2 1018.4 916.5
06 22.08 В 5-8
{8}
н/о н/о +5.5 +1.5 75 +1 +1 1017.9 916.0 -1.8 +8.6
07 22.08 В 4-7
{9}
н/о н/о +5.8 +1.9 76 +2 +2 1017.7 915.9
08 22.08 В 4-7
{8}
н/о н/о +6.0 +1.9 75 +2 +2 1016.9 915.3
09 22.08 В 5-10
{10}
н/о н/о +6.4 +2.4 76 +2 +2 1016.1 914.7
10 22.08 В 4-7
{10}
н/о н/о +7.1 +2.8 74 +4 +4 1015.2 914.1
11 22.08 В 5-8
{8}
н/о н/о +9.4 +3.2 65 +6 +6 1013.5 913.3
12 22.08 В 6-9
{10}
н/о н/о +8.0 +4.2 77 +4 +4 1014.0 913.3 0.2
14 22.08 СВ 1-2
{8}
н/о н/о +11.2 +4.5 63 +11 +11 1011.9 912.5

 

Местоположение метеостанции Гротли (Норвегия): широта 62.02 долгота 7.66 высота над уровнем моря 872 м.

В архиве по умолчанию представлена погода в Гротли за последнюю неделю. Архивные данные за месяц целиком и за предыдущие месяцы, начиная с января 2011 года, Вы можете получить, выбрав интересующий диапазон дат из раскрывающегося списка и нажав кнопку "Ввод!".


*Определитесь, кто Вы:
робот инопланетянин человек

Внимание! Время в таблицах - всемирное. Для получения местного времени необходимо прибавить поправку, которая равна 1 ч.

Смотрите также архив погоды в соседних городах и на ближайших метеорологических станциях:

Погода в Брате (Норвегия) (17 км)
Погода в Тафьорде (Норвегия) (26 км)
Погода в Бьорли (Норвегия) (39 км)
Погода в Марстейне (Норвегия) (49 км)
Погода на Маннене (Норвегия) (49 км)
Погода в Юввассу (Норвегия) (53 км)
Погода в Сонгфельсхутте (Норвегия) (53 км)
Погода в Стрын-Крокене (Норвегия) (59 км)
Погода в Лебергсфелле (Норвегия) (69 км)
Погода в Домбасе (Норвегия) (76 км)

Пояснения к столбцам:

Ветер - указаны скорость ветра в м/с - средняя за 10 мин, порывы в срок и между сроками (в фигурных скобках) и направление, откуда дует ветер: С - северный, СВ - северо-восточный, В - восточный, ЮВ - юго-восточный, Ю - южный, ЮЗ - юго-западный, З - западный, СЗ - северо-западный.
Видимость - горизонтальная дальность видимости в метрах или километрах. При видимости от 1 до 10 км при отсутствии осадков обычно наблюдается дымка, при ухудшении видимости до 1 км и менее - туман. В сухую погоду видимость может ухудшаться дымом, пылью или мглою.
Явления - указаны атмосферные явления, наблюдавшиеся в срок или в последний час перед сроком; фигурными скобками обозначены явления, наблюдавшиеся между сроками (за 1-3 часа до срока); квадратными скобками обозначены град или гололедные отложения с указанием их диаметра в мм.
Облачность - указаны через наклонную черту общая и нижняя облачность в баллах и высота нижней границы облаков в метрах; квадратными скобками обозначены формы облаков: Ci - перистые, Cs - перисто-слоистые, Cc - перисто-кучевые, Ac - высококучевые, As - высокослоистые, Sc - слоисто-кучевые, Ns - слоисто-дождевые, Cu - кучевые, Cb - кучево-дождевые. Подробнее классификацию облаков см. в Атласе облаков (PDF).
T - Температура воздуха - температура, измеренная на высоте 2 м над землей.
Td - Температура точки росы - температура, при понижении до которой содержащийся в воздухе водяной пар достигнет насыщения.
f - Относительная влажность воздуха - влажноcть воздуха, измеренная на высоте 2 м над землей.
Te - Эффективная температура - температура, которую ощущает одетый по сезону человек в тени. Характеристика душности погоды. При расчете учитывается влияние влажности воздуха и скорости ветра на теплоощущения человека.
Tes - Эффективная температура на солнце - температура, которую ощущает человек, с поправкой на солнечный нагрев. Характеристика знойности погоды. Зависит от высоты солнца над горизонтом, облачности и скорости ветра. Ночью, в пасмурную погоду, а также при ветре 12 м/с и более поправка равна нулю.
P - Атмосферное давление - приведенное к уровню моря атмосферное давление.
Po - Атмосферное давление - измеренное на уровне метеостанции атмосферное давление.
Tmin - Минимальная температура - минимум температуры воздуха на высоте 2 м над землей.
Tmax - Максимальная температура - максимум температуры воздуха на высоте 2 м над землей.
R - Количество осадков - Количество выпавших осадков за период времени, мм. При наведении курсора мыши на число - период времени, за который выпало указанное количество осадков.
R24 - Количество осадков - Количество выпавших осадков за 24 часа, мм.
S - Снежный покров - Высота снежного покрова, см. При наведении курсора мыши на число - состояние снежного покрова и степень покрытия местности в баллах.